TimeCDT,TemperatureF,Dew PointF,Humidity,Sea Level PressureIn,VisibilityMPH,Wind Direction,Wind SpeedMPH,Gust SpeedMPH,PrecipitationIn,Events,Conditions,WindDirDegrees,DateUTC
12:53 AM,77.0,72.0,84,29.91,10.0,South,4.6,-,N/A,,Overcast,190,2013-10-17 05:53:00
1:53 AM,78.1,72.0,81,29.92,10.0,SW,6.9,-,N/A,,Overcast,230,2013-10-17 06:53:00
2:53 AM,77.0,73.0,88,29.91,10.0,SW,11.5,-,N/A,,Overcast,220,2013-10-17 07:53:00
3:53 AM,77.0,72.0,84,29.91,10.0,SSW,9.2,-,N/A,,Partly Cloudy,210,2013-10-17 08:53:00
4:53 AM,77.0,72.0,84,29.91,10.0,WSW,8.1,-,N/A,,Mostly Cloudy,240,2013-10-17 09:53:00
5:53 AM,77.0,73.0,88,29.91,10.0,WSW,8.1,-,N/A,,Mostly Cloudy,240,2013-10-17 10:53:00
6:53 AM,75.9,73.0,91,29.92,10.0,SW,8.1,-,N/A,,Mostly Cloudy,230,2013-10-17 11:53:00
7:53 AM,77.0,73.9,90,29.94,10.0,West,9.2,-,N/A,,Mostly Cloudy,270,2013-10-17 12:53:00
8:16 AM,78.8,73.4,83,29.96,10.0,WNW,12.7,-,N/A,,Mostly Cloudy,290,2013-10-17 13:16:00
8:43 AM,78.8,73.4,83,29.97,7.0,WNW,11.5,-,N/A,,Overcast,300,2013-10-17 13:43:00
8:53 AM,78.1,73.0,84,29.96,8.0,WNW,12.7,-,N/A,,Overcast,300,2013-10-17 13:53:00
9:00 AM,77.0,73.4,89,29.98,8.0,WNW,13.8,-,N/A,,Overcast,300,2013-10-17 14:00:00
9:53 AM,77.0,72.0,84,29.97,10.0,NW,12.7,-,N/A,,Overcast,310,2013-10-17 14:53:00
10:53 AM,77.0,70.0,79,29.99,10.0,NNW,13.8,-,N/A,,Mostly Cloudy,330,2013-10-17 15:53:00
11:04 AM,77.0,69.8,78,30.01,10.0,NW,13.8,-,N/A,,Overcast,320,2013-10-17 16:04:00
11:35 AM,78.8,69.8,74,30.00,10.0,NNW,15.0,-,N/A,,Mostly Cloudy,340,2013-10-17 16:35:00
11:53 AM,78.1,69.1,74,29.98,10.0,NNW,12.7,-,N/A,,Overcast,330,2013-10-17 16:53:00
12:53 PM,79.0,69.1,72,29.96,10.0,NNW,10.4,-,N/A,,Mostly Cloudy,330,2013-10-17 17:53:00
1:53 PM,79.0,69.1,72,29.94,10.0,NW,10.4,-,N/A,,Scattered Clouds,320,2013-10-17 18:53:00
2:53 PM,80.1,69.1,69,29.92,10.0,NNW,11.5,-,N/A,,Clear,330,2013-10-17 19:53:00
3:53 PM,78.1,68.0,71,29.92,10.0,NNW,13.8,-,N/A,,Overcast,340,2013-10-17 20:53:00
4:53 PM,77.0,66.9,71,29.91,10.0,North,12.7,-,N/A,,Overcast,350,2013-10-17 21:53:00
5:53 PM,75.9,66.0,71,29.92,10.0,North,12.7,-,N/A,,Overcast,350,2013-10-17 22:53:00
6:11 PM,75.2,66.2,73,29.94,10.0,North,13.8,-,N/A,,Overcast,10,2013-10-17 23:11:00
6:53 PM,75.0,66.0,73,29.94,10.0,North,13.8,-,N/A,,Overcast,10,2013-10-17 23:53:00
7:53 PM,72.0,64.9,78,29.96,10.0,North,16.1,-,N/A,,Overcast,360,2013-10-18 00:53:00
8:53 PM,71.1,64.0,78,29.97,10.0,North,17.3,-,N/A,,Overcast,360,2013-10-18 01:53:00
9:50 PM,69.8,62.6,78,30.00,10.0,North,15.0,-,N/A,,Overcast,10,2013-10-18 02:50:00
9:53 PM,70.0,63.0,78,29.98,10.0,North,16.1,-,N/A,,Overcast,360,2013-10-18 02:53:00
10:36 PM,69.8,62.6,78,29.99,10.0,North,16.1,-,N/A,,Overcast,360,2013-10-18 03:36:00
10:53 PM,68.0,62.1,81,29.98,10.0,North,16.1,19.6,N/A,,Overcast,10,2013-10-18 03:53:00
11:53 PM,68.0,62.1,81,29.98,10.0,North,11.5,-,N/A,,Overcast,10,2013-10-18 04:53:00